Date,TemperatureHighF,TemperatureAvgF,TemperatureLowF,DewpointHighF,DewpointAvgF,DewpointLowF,HumidityHigh,HumidityAvg,HumidityLow,PressureMaxIn,PressureMinIn,WindSpeedMaxMPH,WindSpeedAvgMPH,GustSpeedMaxMPH,PrecipitationSumIn
2013-5-1,81.5,67.7,54.7,58.1,54.7,52.4,94,66,41,30.23,30.05,8,2,11,0.00
2013-5-2,79.7,66.9,57.6,55.3,50.5,43.9,83,57,37,30.23,30.11,8,2,13,0.00
2013-5-3,76.6,66.4,57.0,57.9,44.9,25.9,67,48,18,30.13,30.02,8,2,13,0.00
2013-5-4,70.9,62.9,55.6,48.3,40.9,29.4,75,47,22,30.10,30.01,10,2,13,0.00
2013-5-5,73.4,62.5,53.6,46.2,36.8,23.2,66,42,17,30.08,29.99,9,2,12,0.00
2013-5-6,75.0,62.7,51.3,49.7,42.7,37.1,67,49,34,30.04,29.94,8,2,11,0.00
2013-5-7,76.6,64.2,52.7,54.0,48.3,40.7,78,57,40,30.03,29.96,7,1,11,0.00
2013-5-8,80.4,64.8,52.9,56.2,49.5,45.5,83,61,31,30.03,29.91,5,1,9,0.00
2013-5-9,82.6,67.7,51.8,56.1,50.9,44.5,98,60,27,29.97,29.87,4,1,4,0.00
2013-5-10,71.1,57.5,41.9,63.5,53.8,40.9,99,88,69,29.92,29.73,5,2,9,0.21
2013-5-11,63.1,46.5,35.4,47.3,41.7,30.8,99,85,46,29.93,29.71,6,2,10,0.03
2013-5-12,49.5,40.6,34.5,32.9,29.8,25.1,92,67,44,30.06,29.88,7,3,11,0.00
2013-5-14,80.1,70.7,59.9,54.8,49.0,40.6,73,47,33,29.86,29.70,7,2,12,0.01
2013-5-15,84.9,71.7,57.7,59.5,49.8,41.2,91,51,26,29.79,29.57,4,2,9,0.00
2013-5-16,85.3,68.9,50.0,49.8,44.8,39.1,81,46,22,30.02,29.78,4,1,8,0.00
2013-5-17,75.4,62.5,50.7,47.4,42.0,36.7,73,49,29,30.14,30.02,5,2,9,0.00
2013-5-18,81.7,66.0,54.5,54.6,45.9,36.5,70,50,32,30.14,30.01,8,1,10,13.19
2013-5-19,87.1,70.9,56.3,64.2,56.0,44.6,87,60,44,30.05,29.86,3,1,7,0.00
2013-5-20,90.1,75.6,62.1,71.2,64.4,60.5,98,71,42,29.93,29.74,6,1,14,0.00
2013-5-21,85.8,74.8,67.3,69.4,63.3,58.5,94,70,44,29.82,29.69,4,1,8,0.01
2013-5-22,81.1,67.6,60.3,67.3,63.1,24.6,99,87,48,30.11,29.59,5,1,11,0.08
2013-5-23,63.7,52.9,42.4,61.3,52.0,42.2,99,97,83,30.16,29.70,5,2,11,0.14
2013-5-24,42.4,40.4,37.0,42.2,39.7,34.1,99,97,79,30.29,30.16,4,1,7,0.00
2013-5-28,75.9,71.6,70.2,70.6,68.9,67.2,98,91,80,29.81,29.78,4,1,7,0.16
2013-5-29,84.6,73.5,64.6,68.9,65.7,62.1,96,78,49,29.99,29.75,5,1,11,0.01
2013-5-30,87.6,73.9,63.9,73.7,67.1,61.2,99,81,54,30.04,29.93,5,1,9,0.26
2013-5-31,80.8,70.4,66.0,71.3,67.8,65.7,99,92,68,30.00,29.85,4,1,8,0.28